Total_Precipitation_Accumulation
1.97 2.28 2.74 3.45 3.92 4.10 4.19 4.38 4.42 4.52 4.57 4.60 4.62 4.77 4.94 4.95 4.94 5.05 5.08 4.96 4.90 5.08 5.46 5.51 5.37 5.01 4.69 4.51 4.51 4.52 4.31 4.01 3.84 3.91 3.74 3.33 2.97 2.88 2.76 2.74 2.73 2.59 2.63
1.86 2.28 2.76 3.25 3.54 3.91 4.11 4.35 4.38 4.55 4.84 5.26 5.78 6.06 6.19 6.04 5.84 5.73 5.67 5.53 5.44 5.58 5.69 5.82 5.51 5.14 4.93 4.65 4.41 4.41 4.27 3.97 3.91 4.01 4.11 3.67 3.37 2.83 2.43 2.53 2.54 2.54 2.61
1.85 2.19 2.43 2.84 3.15 3.53 3.88 4.16 4.50 4.89 5.41 6.10 6.92 7.26 7.04 6.59 6.35 6.06 6.00 5.73 5.51 5.49 5.67 5.44 5.21 5.01 4.78 4.55 4.37 4.39 4.36 4.01 3.86 3.98 4.26 3.94 3.55 3.14 2.77 2.49 2.40 2.50 2.57
1.84 2.00 2.24 2.57 2.79 3.14 3.62 4.11 4.66 5.24 5.92 6.58 7.04 7.28 7.19 6.93 6.61 6.14 5.74 5.36 5.03 4.85 4.79 4.71 4.48 4.39 4.25 4.10 3.89 3.95 4.06 3.99 3.73 3.67 3.50 3.43 3.33 3.30 3.00 2.70 2.50 2.48 2.52
1.71 1.82 1.99 2.25 2.60 3.05 3.54 4.06 4.57 5.27 5.77 6.32 6.74 7.03 7.06 6.97 6.60 5.87 5.22 4.79 4.42 4.16 3.88 3.68 3.64 3.64 3.60 3.42 3.24 3.29 3.35 3.32 3.30 3.29 3.14 3.13 3.12 3.05 2.93 2.81 2.72 2.65 2.48
1.74 1.77 1.84 2.04 2.55 2.99 3.53 3.93 4.29 5.00 5.68 6.19 6.56 6.85 6.86 6.69 6.07 5.33 4.77 4.35 4.02 3.75 3.47 3.31 3.21 3.20 3.12 2.95 2.83 2.82 2.82 2.85 2.89 2.99 3.00 2.94 2.85 2.79 2.85 2.68 2.61 2.61 2.45
1.63 1.65 1.89 2.10 2.69 3.11 3.39 3.66 3.94 4.40 4.90 5.37 5.69 5.88 5.93 5.69 5.26 4.84 4.38 3.99 3.73 3.45 3.10 2.77 2.64 2.61 2.69 2.69 2.67 2.64 2.57 2.59 2.62 2.59 2.59 2.60 2.54 2.59 2.71 2.71 2.57 2.47 2.36
1.58 1.59 1.85 2.12 2.34 2.64 2.92 3.22 3.43 3.72 3.99 4.22 4.49 4.45 4.45 4.43 4.24 3.89 3.48 3.20 2.91 2.72 2.55 2.33 2.20 2.19 2.28 2.34 2.45 2.39 2.25 2.25 2.38 2.39 2.51 2.47 2.42 2.54 2.56 2.71 2.82 2.78 2.54
1.55 1.63 1.85 2.04 2.13 2.31 2.56 2.77 2.88 3.11 3.23 3.20 3.19 3.20 3.16 3.22 3.23 3.09 2.77 2.45 2.21 2.06 2.02 1.98 1.95 1.81 1.87 2.03 2.14 2.12 2.06 2.12 2.16 2.19 2.31 2.34 2.33 2.41 2.40 2.53 2.74 3.00 2.92
1.59 1.68 1.82 2.05 2.14 2.16 2.36 2.51 2.49 2.54 2.64 2.70 2.56 2.43 2.50 2.58 2.58 2.51 2.30 2.08 1.89 1.74 1.66 1.65 1.62 1.53 1.56 1.71 1.85 1.89 1.98 2.08 2.02 2.00 2.07 2.07 2.06 2.28 2.38 2.43 2.57 2.83 3.01
1.71 1.81 1.82 1.88 1.93 1.97 2.03 2.16 2.19 2.22 2.23 2.26 2.26 2.20 2.13 2.06 2.06 2.10 2.04 1.89 1.76 1.65 1.58 1.48 1.48 1.49 1.46 1.52 1.65 1.67 1.76 1.87 1.89 1.84 1.81 1.82 1.96 2.10 2.13 2.24 2.37 2.62 2.92
1.84 1.95 1.96 1.86 1.87 2.01 2.11 2.06 2.06 2.05 2.05 2.02 2.06 2.11 1.93 1.82 1.79 1.79 1.77 1.65 1.60 1.57 1.51 1.45 1.43 1.41 1.41 1.44 1.45 1.44 1.50 1.64 1.65 1.64 1.66 1.54 1.64 1.85 1.96 2.10 2.18 2.35 2.58
2.07 2.20 2.10 1.88 1.81 1.86 1.90 1.79 1.73 1.74 1.61 1.57 1.71 1.82 1.66 1.54 1.56 1.54 1.52 1.52 1.45 1.42 1.35 1.33 1.29 1.26 1.32 1.36 1.37 1.38 1.43 1.43 1.46 1.53 1.54 1.53 1.67 1.77 1.92 2.04 2.10 2.25 2.32
2.01 2.15 2.17 1.97 1.88 1.75 1.71 1.61 1.51 1.50 1.47 1.44 1.45 1.50 1.50 1.46 1.43 1.40 1.39 1.36 1.31 1.26 1.19 1.13 1.13 1.17 1.18 1.17 1.22 1.26 1.31 1.37 1.41 1.47 1.49 1.51 1.60 1.71 1.93 1.99 2.13 2.29 2.43
2.03 2.16 2.11 1.95 1.90 1.85 1.76 1.56 1.45 1.43 1.44 1.48 1.47 1.42 1.39 1.33 1.35 1.35 1.32 1.24 1.23 1.15 1.13 1.10 1.09 1.10 1.10 1.02 1.06 1.19 1.27 1.40 1.47 1.46 1.42 1.37 1.41 1.54 1.69 1.76 2.03 2.31 2.50
2.04 2.03 1.98 1.95 1.93 1.90 1.83 1.59 1.41 1.35 1.41 1.49 1.50 1.45 1.40 1.33 1.33 1.35 1.34 1.31 1.32 1.30 1.22 1.21 1.17 1.10 0.95 1.01 1.05 1.11 1.26 1.39 1.42 1.50 1.46 1.28 1.25 1.30 1.36 1.44 1.56 1.89 2.19
2.32 2.23 2.14 2.14 2.16 2.02 1.83 1.69 1.49 1.39 1.40 1.44 1.44 1.50 1.44 1.35 1.28 1.27 1.38 1.38 1.42 1.38 1.32 1.26 1.20 1.14 1.08 1.07 0.99 1.00 1.13 1.33 1.43 1.49 1.54 1.35 1.19 1.30 1.32 1.32 1.30 1.44 1.70
2.29 2.24 2.20 2.22 2.19 2.04 1.93 1.79 1.56 1.43 1.39 1.37 1.31 1.36 1.36 1.35 1.31 1.33 1.39 1.42 1.49 1.49 1.36 1.25 1.22 1.27 1.08 1.02 0.96 1.00 1.10 1.31 1.40 1.40 1.42 1.49 1.44 1.28 1.29 1.37 1.46 1.57 1.67
2.13 2.14 2.15 2.20 2.16 2.02 1.92 1.79 1.61 1.43 1.32 1.28 1.25 1.18 1.16 1.18 1.21 1.23 1.33 1.48 1.52 1.47 1.30 1.20 1.23 1.20 1.02 0.92 0.88 0.90 1.02 1.22 1.28 1.21 1.17 1.22 1.26 1.19 1.22 1.41 1.67 1.83 1.98
1.94 1.94 1.96 2.01 2.03 1.96 1.88 1.82 1.72 1.51 1.31 1.16 1.07 1.08 1.13 1.13 1.14 1.21 1.33 1.34 1.40 1.39 1.27 1.16 1.15 1.10 0.98 0.87 0.79 0.80 0.87 1.02 1.08 1.15 1.12 1.14 1.14 1.13 1.21 1.42 1.79 2.00 2.07
1.82 1.71 1.63 1.65 1.73 1.74 1.72 1.68 1.56 1.38 1.11 0.99 0.96 1.01 1.04 1.06 1.06 1.20 1.25 1.25 1.22 1.30 1.30 1.23 1.13 1.04 0.90 0.77 0.73 0.71 0.72 0.83 0.98 1.05 1.11 1.14 1.13 1.07 1.17 1.40 1.67 1.90 1.95
1.72 1.59 1.51 1.39 1.34 1.38 1.50 1.53 1.34 1.08 0.94 0.89 0.88 0.89 0.89 0.82 0.84 1.11 1.25 1.23 1.30 1.25 1.19 1.21 1.15 1.00 0.87 0.70 0.58 0.56 0.60 0.71 0.96 1.08 1.08 1.11 1.13 1.11 1.23 1.34 1.62 1.91 2.06
1.53 1.42 1.30 1.18 1.08 1.15 1.23 1.20 1.10 0.93 0.83 0.85 0.89 0.86 0.81 0.84 0.83 0.91 1.01 1.07 1.17 1.12 1.01 1.01 1.01 0.89 0.76 0.64 0.51 0.46 0.49 0.61 0.76 0.94 1.07 1.06 1.02 1.17 1.43 1.59 1.76 1.98 2.14
1.38 1.25 1.23 1.15 1.05 1.01 0.96 0.92 0.82 0.81 0.83 0.90 0.94 0.93 0.88 0.86 0.83 0.83 0.82 0.77 0.82 0.87 0.93 0.94 0.91 0.86 0.77 0.60 0.46 0.45 0.49 0.56 0.64 0.78 0.99 1.14 1.20 1.36 1.66 1.89 2.00 2.07 2.04
1.24 1.15 1.25 1.20 1.07 0.95 0.87 0.78 0.72 0.76 0.93 0.96 0.91 0.89 0.85 0.80 0.79 0.75 0.72 0.65 0.65 0.70 0.76 0.79 0.82 0.80 0.69 0.54 0.50 0.45 0.45 0.53 0.62 0.75 0.96 1.15 1.26 1.47 1.71 1.84 1.87 1.87 1.83
1.09 1.07 1.15 1.12 1.03 0.94 0.90 0.81 0.73 0.72 0.83 0.90 0.88 0.80 0.77 0.73 0.66 0.64 0.60 0.52 0.48 0.51 0.53 0.55 0.55 0.54 0.55 0.55 0.50 0.46 0.50 0.58 0.69 0.80 1.05 1.24 1.35 1.53 1.66 1.77 1.74 1.66 1.64